Year,Month,Day,Hour,Minute,Value (Times are PST for temperature in C)
2023,04,27,00,00,8.80
2023,04,27,00,01,8.80
2023,04,27,00,02,8.80
2023,04,27,00,03,8.80
2023,04,27,00,04,8.80
2023,04,27,00,05,8.80
2023,04,27,00,06,8.80
2023,04,27,00,07,8.80
2023,04,27,00,08,8.80
2023,04,27,00,09,8.80
2023,04,27,00,10,8.80
2023,04,27,00,11,8.80
2023,04,27,00,12,8.80
2023,04,27,00,13,8.80
2023,04,27,00,14,8.80
2023,04,27,00,15,8.80
2023,04,27,00,16,8.80
2023,04,27,00,17,8.90
2023,04,27,00,18,8.90
2023,04,27,00,19,8.90
2023,04,27,00,20,8.90
2023,04,27,00,21,8.90
2023,04,27,00,22,8.90
2023,04,27,00,23,8.90
2023,04,27,00,24,8.90
2023,04,27,00,25,9.00
2023,04,27,00,26,9.00
2023,04,27,00,27,9.00
2023,04,27,00,28,9.00
2023,04,27,00,29,9.10
2023,04,27,00,30,9.10
2023,04,27,00,31,9.10
2023,04,27,00,32,9.10
2023,04,27,00,33,9.10
2023,04,27,00,34,9.10
2023,04,27,00,35,9.10
2023,04,27,00,36,9.10
2023,04,27,00,37,9.20
2023,04,27,00,38,9.20
2023,04,27,00,39,9.20
2023,04,27,00,40,9.20
2023,04,27,00,41,9.20
2023,04,27,00,42,9.20
2023,04,27,00,43,9.20
2023,04,27,00,44,9.30
2023,04,27,00,45,9.30
2023,04,27,00,46,9.30
2023,04,27,00,47,9.30
2023,04,27,00,48,9.30
2023,04,27,00,49,9.40
2023,04,27,00,50,9.40
2023,04,27,00,51,9.40
2023,04,27,00,52,9.40
2023,04,27,00,53,9.40
2023,04,27,00,54,9.40
2023,04,27,00,55,9.40
2023,04,27,00,56,9.40
2023,04,27,00,57,9.40
2023,04,27,00,58,9.40
2023,04,27,00,59,9.40
2023,04,27,01,00,9.40
2023,04,27,01,01,9.40
2023,04,27,01,02,9.40
2023,04,27,01,03,9.40
2023,04,27,01,04,9.40
2023,04,27,01,05,9.40
2023,04,27,01,06,9.40
2023,04,27,01,07,9.40
2023,04,27,01,08,9.40
2023,04,27,01,09,9.40
2023,04,27,01,10,9.40
2023,04,27,01,11,9.40
2023,04,27,01,12,9.40
2023,04,27,01,13,9.50
2023,04,27,01,14,9.50
2023,04,27,01,15,9.50
2023,04,27,01,16,9.50
2023,04,27,01,17,9.50
2023,04,27,01,18,9.50
2023,04,27,01,19,9.60
2023,04,27,01,20,9.60
2023,04,27,01,21,9.60
2023,04,27,01,22,9.60
2023,04,27,01,23,9.60
2023,04,27,01,24,9.60
2023,04,27,01,25,9.60
2023,04,27,01,26,9.60
2023,04,27,01,27,9.60
2023,04,27,01,28,9.60
2023,04,27,01,29,9.60
2023,04,27,01,30,9.50
2023,04,27,01,31,9.50
2023,04,27,01,32,9.50
2023,04,27,01,33,9.50
2023,04,27,01,34,9.50
2023,04,27,01,35,9.50
2023,04,27,01,36,9.50
2023,04,27,01,37,9.40
2023,04,27,01,38,9.40
2023,04,27,01,39,9.40
2023,04,27,01,40,9.40
2023,04,27,01,41,9.40
2023,04,27,01,42,9.40
2023,04,27,01,43,9.40
2023,04,27,01,44,9.40
2023,04,27,01,45,9.40
2023,04,27,01,46,9.30
2023,04,27,01,47,9.30
2023,04,27,01,48,9.30
2023,04,27,01,49,9.30
2023,04,27,01,50,9.30
2023,04,27,01,51,9.30
2023,04,27,01,52,9.30
2023,04,27,01,53,9.30
2023,04,27,01,54,9.30
2023,04,27,01,55,9.20
2023,04,27,01,56,9.30
2023,04,27,01,57,9.20
2023,04,27,01,58,9.20
2023,04,27,01,59,9.20
2023,04,27,02,00,9.20
2023,04,27,02,01,9.20
2023,04,27,02,02,9.20
2023,04,27,02,03,9.20
2023,04,27,02,04,9.10
2023,04,27,02,05,9.10
2023,04,27,02,06,9.10
2023,04,27,02,07,9.10
2023,04,27,02,08,9.10
2023,04,27,02,09,9.10
2023,04,27,02,10,9.10
2023,04,27,02,11,9.10
2023,04,27,02,12,9.10
2023,04,27,02,13,9.10
2023,04,27,02,14,9.00
2023,04,27,02,15,9.00
2023,04,27,02,16,9.00
2023,04,27,02,17,9.00
2023,04,27,02,18,9.00
2023,04,27,02,19,8.90
2023,04,27,02,20,8.90
2023,04,27,02,21,8.90
2023,04,27,02,22,8.90
2023,04,27,02,23,9.00
2023,04,27,02,24,9.00
2023,04,27,02,25,9.00
2023,04,27,02,26,9.10
2023,04,27,02,27,9.00
2023,04,27,02,28,9.10
2023,04,27,02,29,9.10
2023,04,27,02,30,9.10
2023,04,27,02,31,9.00
2023,04,27,02,32,9.00
2023,04,27,02,33,9.00
2023,04,27,02,34,9.00
2023,04,27,02,35,9.00
2023,04,27,02,36,9.00
2023,04,27,02,37,8.90
2023,04,27,02,38,8.90
2023,04,27,02,39,8.90
2023,04,27,02,40,8.90
2023,04,27,02,41,8.90
2023,04,27,02,42,8.80
2023,04,27,02,43,8.80
2023,04,27,02,44,8.80
2023,04,27,02,45,8.80
2023,04,27,02,46,8.80
2023,04,27,02,47,8.80
2023,04,27,02,48,8.90
2023,04,27,02,49,8.90
2023,04,27,02,50,8.90
2023,04,27,02,51,8.90
2023,04,27,02,52,8.90
2023,04,27,02,53,8.90
2023,04,27,02,54,8.90
2023,04,27,02,55,8.90
2023,04,27,02,56,8.80
2023,04,27,02,57,8.80
2023,04,27,02,58,8.80
2023,04,27,02,59,8.80
2023,04,27,03,00,8.80
2023,04,27,03,01,8.80
2023,04,27,03,02,8.80
2023,04,27,03,03,8.80
2023,04,27,03,04,8.80
2023,04,27,03,05,8.80
2023,04,27,03,06,8.70
2023,04,27,03,07,8.70
2023,04,27,03,08,8.70
2023,04,27,03,09,8.70
2023,04,27,03,10,8.60
2023,04,27,03,11,8.60
2023,04,27,03,12,8.60
2023,04,27,03,13,8.60
2023,04,27,03,14,8.60
2023,04,27,03,15,8.60
2023,04,27,03,16,8.60
2023,04,27,03,17,8.60
2023,04,27,03,18,8.60
2023,04,27,03,19,8.60
2023,04,27,03,20,8.60
2023,04,27,03,21,8.60
2023,04,27,03,22,8.60
2023,04,27,03,23,8.60
2023,04,27,03,24,8.70
2023,04,27,03,25,8.70
2023,04,27,03,26,8.70
2023,04,27,03,27,8.70
2023,04,27,03,28,8.70
2023,04,27,03,29,8.70
2023,04,27,03,30,8.70
2023,04,27,03,31,8.80
2023,04,27,03,32,8.80
2023,04,27,03,33,8.80
2023,04,27,03,34,8.80
2023,04,27,03,35,8.80
2023,04,27,03,36,8.80
2023,04,27,03,37,8.90
2023,04,27,03,38,8.90
2023,04,27,03,39,8.90
2023,04,27,03,40,9.00
2023,04,27,03,41,9.00
2023,04,27,03,42,9.10
2023,04,27,03,43,9.10
2023,04,27,03,44,9.10
2023,04,27,03,45,9.10
2023,04,27,03,46,9.10
2023,04,27,03,47,9.10
2023,04,27,03,48,9.20
2023,04,27,03,49,9.20
2023,04,27,03,50,9.20
2023,04,27,03,51,9.20
2023,04,27,03,52,9.20
2023,04,27,03,53,9.20
2023,04,27,03,54,9.20
2023,04,27,03,55,9.10
2023,04,27,03,56,9.10
2023,04,27,03,57,9.10
2023,04,27,03,58,9.10
2023,04,27,03,59,9.10
2023,04,27,04,00,9.00
2023,04,27,04,01,9.00
2023,04,27,04,02,9.00
2023,04,27,04,03,9.00
2023,04,27,04,04,9.10
2023,04,27,04,05,9.10
2023,04,27,04,06,9.10
2023,04,27,04,07,9.10
2023,04,27,04,08,9.10
2023,04,27,04,09,9.10
2023,04,27,04,10,9.10
2023,04,27,04,11,9.10
2023,04,27,04,12,9.00
2023,04,27,04,13,9.00
2023,04,27,04,14,9.00
2023,04,27,04,15,8.90
2023,04,27,04,16,8.90
2023,04,27,04,17,8.90
2023,04,27,04,18,8.80
2023,04,27,04,19,8.80
2023,04,27,04,20,8.80
2023,04,27,04,21,8.80
2023,04,27,04,22,8.80
2023,04,27,04,23,8.80
2023,04,27,04,24,8.80
2023,04,27,04,25,8.80
2023,04,27,04,26,8.90
2023,04,27,04,27,8.90
2023,04,27,04,28,8.90
2023,04,27,04,29,8.90
2023,04,27,04,30,9.00
2023,04,27,04,31,8.90
2023,04,27,04,32,8.90
2023,04,27,04,33,8.90
2023,04,27,04,34,8.90
2023,04,27,04,35,9.00
2023,04,27,04,36,9.00
2023,04,27,04,37,9.00
2023,04,27,04,38,9.00
2023,04,27,04,39,9.00
2023,04,27,04,40,9.00
2023,04,27,04,41,9.10
2023,04,27,04,42,9.10
2023,04,27,04,43,9.20
2023,04,27,04,44,9.20
2023,04,27,04,45,9.20
2023,04,27,04,46,9.30
2023,04,27,04,47,9.30
2023,04,27,04,48,9.20
2023,04,27,04,49,9.20
2023,04,27,04,50,9.20
2023,04,27,04,51,9.20
2023,04,27,04,52,9.20
2023,04,27,04,53,9.20
2023,04,27,04,54,9.10
2023,04,27,04,55,9.10
2023,04,27,04,56,9.10
2023,04,27,04,57,9.00
2023,04,27,04,58,9.00
2023,04,27,04,59,8.90
2023,04,27,05,00,8.80
2023,04,27,05,01,8.80
2023,04,27,05,02,8.70
2023,04,27,05,03,8.60
2023,04,27,05,04,8.50
2023,04,27,05,05,8.50
2023,04,27,05,06,8.40
2023,04,27,05,07,8.40
2023,04,27,05,08,8.40
2023,04,27,05,09,8.40
2023,04,27,05,10,8.40
2023,04,27,05,11,8.30
2023,04,27,05,12,8.30
2023,04,27,05,13,8.30
2023,04,27,05,14,8.30
2023,04,27,05,15,8.30
2023,04,27,05,16,8.30
2023,04,27,05,17,8.20
2023,04,27,05,18,8.20
2023,04,27,05,19,8.20
2023,04,27,05,20,8.20
2023,04,27,05,21,8.20
2023,04,27,05,22,8.20
2023,04,27,05,23,8.30
2023,04,27,05,24,8.30
2023,04,27,05,25,8.40
2023,04,27,05,26,8.50
2023,04,27,05,27,8.50
2023,04,27,05,28,8.60
2023,04,27,05,29,8.70
2023,04,27,05,30,8.70
2023,04,27,05,31,8.70
2023,04,27,05,32,8.80
2023,04,27,05,33,8.80
2023,04,27,05,34,8.80
2023,04,27,05,35,8.80
2023,04,27,05,36,8.80
2023,04,27,05,37,8.80
2023,04,27,05,38,8.70
2023,04,27,05,39,8.70
2023,04,27,05,40,8.70
2023,04,27,05,41,8.60
2023,04,27,05,42,8.60
2023,04,27,05,43,8.60
2023,04,27,05,44,8.60
2023,04,27,05,45,8.60
2023,04,27,05,46,8.70
2023,04,27,05,47,8.70
2023,04,27,05,48,8.70
2023,04,27,05,49,8.80
2023,04,27,05,50,8.80
2023,04,27,05,51,8.80
2023,04,27,05,52,8.80
2023,04,27,05,53,8.80
2023,04,27,05,54,8.80
2023,04,27,05,55,8.80
2023,04,27,05,56,8.90
2023,04,27,05,57,8.90
2023,04,27,05,58,8.90
2023,04,27,05,59,8.90
2023,04,27,06,00,8.90
2023,04,27,06,01,8.90
2023,04,27,06,02,8.90
2023,04,27,06,03,8.90
2023,04,27,06,04,8.90
2023,04,27,06,05,8.90
2023,04,27,06,06,8.90
2023,04,27,06,07,8.90
2023,04,27,06,08,8.90
2023,04,27,06,09,8.90
2023,04,27,06,10,8.90
2023,04,27,06,11,9.00
2023,04,27,06,12,9.00
2023,04,27,06,13,9.00
2023,04,27,06,14,8.90
2023,04,27,06,15,8.90
2023,04,27,06,16,8.90
2023,04,27,06,17,8.90
2023,04,27,06,18,8.90
2023,04,27,06,19,8.90
2023,04,27,06,20,8.90
2023,04,27,06,21,9.00
2023,04,27,06,22,9.10
2023,04,27,06,23,9.10
2023,04,27,06,24,9.20
2023,04,27,06,25,9.20
2023,04,27,06,26,9.20
2023,04,27,06,27,9.20
2023,04,27,06,28,9.20
2023,04,27,06,29,9.20
2023,04,27,06,30,9.20
2023,04,27,06,31,9.20
2023,04,27,06,32,9.10
2023,04,27,06,33,9.10
2023,04,27,06,34,9.10
2023,04,27,06,35,9.10
2023,04,27,06,36,9.00
2023,04,27,06,37,9.00
2023,04,27,06,38,9.00
2023,04,27,06,39,8.90
2023,04,27,06,40,8.90
2023,04,27,06,41,8.90
2023,04,27,06,42,8.90
2023,04,27,06,43,8.90
2023,04,27,06,44,8.90
2023,04,27,06,45,8.90
2023,04,27,06,46,8.90
2023,04,27,06,47,8.90
2023,04,27,06,48,8.90
2023,04,27,06,49,8.90
2023,04,27,06,50,8.90
2023,04,27,06,51,8.90
2023,04,27,06,52,8.90
2023,04,27,06,53,8.90
2023,04,27,06,54,9.00
2023,04,27,06,55,9.00
2023,04,27,06,56,9.00
2023,04,27,06,57,9.10
2023,04,27,06,58,9.10
2023,04,27,06,59,9.10
2023,04,27,07,00,9.10
2023,04,27,07,01,9.20
2023,04,27,07,02,9.20
2023,04,27,07,03,9.20
2023,04,27,07,04,9.20
2023,04,27,07,05,9.20
2023,04,27,07,06,9.20
2023,04,27,07,07,9.20
2023,04,27,07,08,9.30
2023,04,27,07,09,9.30
2023,04,27,07,10,9.30
2023,04,27,07,11,9.40
2023,04,27,07,12,9.40
2023,04,27,07,13,9.40
2023,04,27,07,14,9.50
2023,04,27,07,15,9.50
2023,04,27,07,16,9.60
2023,04,27,07,17,9.60
2023,04,27,07,18,9.70
2023,04,27,07,19,9.70
2023,04,27,07,20,9.80
2023,04,27,07,21,9.80
2023,04,27,07,22,9.90
2023,04,27,07,23,9.90
2023,04,27,07,24,10.00
2023,04,27,07,25,10.00
2023,04,27,07,26,10.10
2023,04,27,07,27,10.10
2023,04,27,07,28,10.10
2023,04,27,07,29,10.10
2023,04,27,07,30,10.10
2023,04,27,07,31,10.10
2023,04,27,07,32,10.10
2023,04,27,07,33,10.10
2023,04,27,07,34,10.10
2023,04,27,07,35,10.10
2023,04,27,07,36,10.20
2023,04,27,07,37,10.20
2023,04,27,07,38,10.20
2023,04,27,07,39,10.30
2023,04,27,07,40,10.30
2023,04,27,07,41,10.30
2023,04,27,07,42,10.30
2023,04,27,07,43,10.30
2023,04,27,07,44,10.30
2023,04,27,07,45,10.30
2023,04,27,07,46,10.30
2023,04,27,07,47,10.30
2023,04,27,07,48,10.30
2023,04,27,07,49,10.30
2023,04,27,07,50,10.30
2023,04,27,07,51,10.40
2023,04,27,07,52,10.40
2023,04,27,07,53,10.40
2023,04,27,07,54,10.40
2023,04,27,07,55,10.40
2023,04,27,07,56,10.40
2023,04,27,07,57,10.50
2023,04,27,07,58,10.50
2023,04,27,07,59,10.50
2023,04,27,08,00,10.60
2023,04,27,08,01,10.70
2023,04,27,08,02,10.70
2023,04,27,08,03,10.80
2023,04,27,08,04,10.80
2023,04,27,08,05,10.80
2023,04,27,08,06,10.80
2023,04,27,08,07,10.90
2023,04,27,08,08,10.90
2023,04,27,08,09,10.90
2023,04,27,08,10,10.90
2023,04,27,08,11,10.90
2023,04,27,08,12,11.00
2023,04,27,08,13,11.00
2023,04,27,08,14,10.90
2023,04,27,08,15,10.90
2023,04,27,08,16,10.80
2023,04,27,08,17,10.80
2023,04,27,08,18,10.80
2023,04,27,08,19,10.80
2023,04,27,08,20,10.80
2023,04,27,08,21,10.90
2023,04,27,08,22,10.90
2023,04,27,08,23,10.90
2023,04,27,08,24,11.00
2023,04,27,08,25,10.90
2023,04,27,08,26,10.90
2023,04,27,08,27,10.90
2023,04,27,08,28,10.90
2023,04,27,08,29,10.90
2023,04,27,08,30,10.80
2023,04,27,08,31,10.80
2023,04,27,08,32,10.80
2023,04,27,08,33,10.80
2023,04,27,08,34,10.80
2023,04,27,08,35,10.90
2023,04,27,08,36,11.00
2023,04,27,08,37,11.00
2023,04,27,08,38,11.10
2023,04,27,08,39,11.10
2023,04,27,08,40,11.00
2023,04,27,08,41,11.00
2023,04,27,08,42,10.90
2023,04,27,08,43,10.90
2023,04,27,08,44,10.90
2023,04,27,08,45,10.80
2023,04,27,08,46,10.70
2023,04,27,08,47,10.60
2023,04,27,08,48,10.50
2023,04,27,08,49,10.50
2023,04,27,08,50,10.50
2023,04,27,08,51,10.50
2023,04,27,08,52,10.50
2023,04,27,08,53,10.50
2023,04,27,08,54,10.50
2023,04,27,08,55,10.40
2023,04,27,08,56,10.50
2023,04,27,08,57,10.50
2023,04,27,08,58,10.50
2023,04,27,08,59,10.50
2023,04,27,09,00,10.60
2023,04,27,09,01,10.60
2023,04,27,09,02,10.60
2023,04,27,09,03,10.50
2023,04,27,09,04,10.50
2023,04,27,09,05,10.50
2023,04,27,09,06,10.60
2023,04,27,09,07,10.60
2023,04,27,09,08,10.70
2023,04,27,09,09,10.70
2023,04,27,09,10,10.70
2023,04,27,09,11,10.70
2023,04,27,09,12,10.80
2023,04,27,09,13,10.90
2023,04,27,09,14,10.90
2023,04,27,09,15,11.10
2023,04,27,09,16,11.10
2023,04,27,09,17,11.20
2023,04,27,09,18,11.30
2023,04,27,09,19,11.40
2023,04,27,09,20,11.40
2023,04,27,09,21,11.50
2023,04,27,09,22,11.60
2023,04,27,09,23,11.70
2023,04,27,09,24,11.80
2023,04,27,09,25,11.90
2023,04,27,09,26,12.00
2023,04,27,09,27,12.10
2023,04,27,09,28,12.10
2023,04,27,09,29,12.20
2023,04,27,09,30,12.20
2023,04,27,09,31,12.20
2023,04,27,09,32,12.30
2023,04,27,09,33,12.30
2023,04,27,09,34,12.30
2023,04,27,09,35,12.30
2023,04,27,09,36,12.40
2023,04,27,09,37,12.40
2023,04,27,09,38,12.40
2023,04,27,09,39,12.40
2023,04,27,09,40,12.40
2023,04,27,09,41,12.50
2023,04,27,09,42,12.50
2023,04,27,09,43,12.60
2023,04,27,09,44,12.60
2023,04,27,09,45,12.60
2023,04,27,09,46,12.60
2023,04,27,09,47,12.70
2023,04,27,09,48,12.70
2023,04,27,09,49,12.70
2023,04,27,09,50,12.80
2023,04,27,09,51,12.80
2023,04,27,09,52,12.80
2023,04,27,09,53,12.90
2023,04,27,09,54,12.90
2023,04,27,09,55,12.90
2023,04,27,09,56,12.90
2023,04,27,09,57,12.90
2023,04,27,09,58,12.90
2023,04,27,09,59,12.90
2023,04,27,10,00,12.90
2023,04,27,10,01,12.90
2023,04,27,10,02,12.90
2023,04,27,10,03,12.90
2023,04,27,10,04,12.80
2023,04,27,10,05,12.80
2023,04,27,10,06,12.90
2023,04,27,10,07,12.90
2023,04,27,10,08,12.90
2023,04,27,10,09,12.90
2023,04,27,10,10,12.90
2023,04,27,10,11,13.00
2023,04,27,10,12,13.00
2023,04,27,10,13,13.00
2023,04,27,10,14,13.00
2023,04,27,10,15,13.10
2023,04,27,10,16,13.10
2023,04,27,10,17,13.10
2023,04,27,10,18,13.10
2023,04,27,10,19,13.10
2023,04,27,10,20,13.20
2023,04,27,10,21,13.20
2023,04,27,10,22,13.20
2023,04,27,10,23,13.20
2023,04,27,10,24,13.30
2023,04,27,10,25,13.40
2023,04,27,10,26,13.40
2023,04,27,10,27,13.40
2023,04,27,10,28,13.40
2023,04,27,10,29,13.40
2023,04,27,10,30,13.40
2023,04,27,10,31,13.40
2023,04,27,10,32,13.40
2023,04,27,10,33,13.40
2023,04,27,10,34,13.40
2023,04,27,10,35,13.50
2023,04,27,10,36,13.60
2023,04,27,10,37,13.60
2023,04,27,10,38,13.60
2023,04,27,10,39,13.60
2023,04,27,10,40,13.60
2023,04,27,10,41,13.60
2023,04,27,10,42,13.50
2023,04,27,10,43,13.50
2023,04,27,10,44,13.40
2023,04,27,10,45,13.40
2023,04,27,10,46,13.40
2023,04,27,10,47,13.30
2023,04,27,10,48,13.30
2023,04,27,10,49,13.30
2023,04,27,10,50,13.20
2023,04,27,10,51,13.20
2023,04,27,10,52,13.20
2023,04,27,10,53,13.20
2023,04,27,10,54,13.20
2023,04,27,10,55,13.30
2023,04,27,10,56,13.30
2023,04,27,10,57,13.30
2023,04,27,10,58,13.30
2023,04,27,10,59,13.40
2023,04,27,11,00,13.40
2023,04,27,11,01,13.40
2023,04,27,11,02,13.40
2023,04,27,11,03,13.40
2023,04,27,11,04,13.40
2023,04,27,11,05,13.30
2023,04,27,11,06,13.30
2023,04,27,11,07,13.30
2023,04,27,11,08,13.30
2023,04,27,11,09,13.40
2023,04,27,11,10,13.30
2023,04,27,11,11,13.30
2023,04,27,11,12,13.30
2023,04,27,11,13,13.30
2023,04,27,11,14,13.30
2023,04,27,11,15,13.40
2023,04,27,11,16,13.40
2023,04,27,11,17,13.50
2023,04,27,11,18,13.60
2023,04,27,11,19,13.60
2023,04,27,11,20,13.70
2023,04,27,11,21,13.70
2023,04,27,11,22,13.70
2023,04,27,11,23,13.70
2023,04,27,11,24,13.80
2023,04,27,11,25,13.80
2023,04,27,11,26,13.80
2023,04,27,11,27,13.80
2023,04,27,11,28,13.80
2023,04,27,11,29,13.80
2023,04,27,11,30,13.80
2023,04,27,11,31,13.80
2023,04,27,11,32,13.80
2023,04,27,11,33,13.80
2023,04,27,11,34,13.90
2023,04,27,11,35,13.90
2023,04,27,11,36,13.90
2023,04,27,11,37,14.00
2023,04,27,11,38,14.00
2023,04,27,11,39,14.10
2023,04,27,11,40,14.10
2023,04,27,11,41,14.20
2023,04,27,11,42,14.10
2023,04,27,11,43,14.10
2023,04,27,11,44,14.10
2023,04,27,11,45,14.10
2023,04,27,11,46,14.10
2023,04,27,11,47,14.00
2023,04,27,11,48,14.00
2023,04,27,11,49,13.90
2023,04,27,11,50,13.90
2023,04,27,11,51,13.80
2023,04,27,11,52,13.80
2023,04,27,11,53,13.90
2023,04,27,11,54,14.00
2023,04,27,11,55,14.00
2023,04,27,11,56,14.00
2023,04,27,11,57,13.90
2023,04,27,11,58,14.00
2023,04,27,11,59,14.00
2023,04,27,12,00,14.00
2023,04,27,12,01,14.10
2023,04,27,12,02,14.00
2023,04,27,12,03,14.00
2023,04,27,12,04,14.10
2023,04,27,12,05,14.20
2023,04,27,12,06,14.20
2023,04,27,12,07,14.20
2023,04,27,12,08,14.20
2023,04,27,12,09,14.10
2023,04,27,12,10,14.00
2023,04,27,12,11,14.00
2023,04,27,12,12,14.10
2023,04,27,12,13,14.10
2023,04,27,12,14,14.10
2023,04,27,12,15,14.20
2023,04,27,12,16,14.20
2023,04,27,12,17,14.20
2023,04,27,12,18,14.20
2023,04,27,12,19,14.20
2023,04,27,12,20,14.20
2023,04,27,12,21,14.20
2023,04,27,12,22,14.10
2023,04,27,12,23,14.10
2023,04,27,12,24,14.10
2023,04,27,12,25,14.20
2023,04,27,12,26,14.30
2023,04,27,12,27,14.40
2023,04,27,12,28,14.50
2023,04,27,12,29,14.50
2023,04,27,12,30,14.60
2023,04,27,12,31,14.70
2023,04,27,12,32,14.70
2023,04,27,12,33,14.60
2023,04,27,12,34,14.60
2023,04,27,12,35,14.50
2023,04,27,12,36,14.40
2023,04,27,12,37,14.40
2023,04,27,12,38,14.50
2023,04,27,12,39,14.50
2023,04,27,12,40,14.50
2023,04,27,12,41,14.40
2023,04,27,12,42,14.40
2023,04,27,12,43,14.40
2023,04,27,12,44,14.40
2023,04,27,12,45,14.40
2023,04,27,12,46,14.40
2023,04,27,12,47,14.40
2023,04,27,12,48,14.40
2023,04,27,12,49,14.50
2023,04,27,12,50,14.60
2023,04,27,12,51,14.70
2023,04,27,12,52,14.70
2023,04,27,12,53,14.70
2023,04,27,12,54,14.80
2023,04,27,12,55,14.80
2023,04,27,12,56,14.80
2023,04,27,12,57,14.80
2023,04,27,12,58,14.90
2023,04,27,12,59,14.90
2023,04,27,13,00,14.90
2023,04,27,13,01,15.00
2023,04,27,13,02,15.00
2023,04,27,13,03,14.90
2023,04,27,13,04,15.00
2023,04,27,13,05,15.00
2023,04,27,13,06,15.10
2023,04,27,13,07,15.10
2023,04,27,13,08,15.10
2023,04,27,13,09,15.00
2023,04,27,13,10,15.10
2023,04,27,13,11,15.10
2023,04,27,13,12,15.10
2023,04,27,13,13,15.10
2023,04,27,13,14,15.10
2023,04,27,13,15,15.10
2023,04,27,13,16,15.00
2023,04,27,13,17,15.00
2023,04,27,13,18,15.00
2023,04,27,13,19,14.90
2023,04,27,13,20,14.90
2023,04,27,13,21,14.90
2023,04,27,13,22,15.00
2023,04,27,13,23,15.00
2023,04,27,13,24,15.10
2023,04,27,13,25,15.00
2023,04,27,13,26,15.10
2023,04,27,13,27,15.10
2023,04,27,13,28,15.10
2023,04,27,13,29,15.10
2023,04,27,13,30,15.20
2023,04,27,13,31,15.10
2023,04,27,13,32,15.10
2023,04,27,13,33,15.10
2023,04,27,13,34,15.10
2023,04,27,13,35,15.20
2023,04,27,13,36,15.10
2023,04,27,13,37,15.10
2023,04,27,13,38,15.10
2023,04,27,13,39,15.10
2023,04,27,13,40,15.10
2023,04,27,13,41,15.10
2023,04,27,13,42,15.20
2023,04,27,13,43,15.20
2023,04,27,13,44,15.20
2023,04,27,13,45,15.20
2023,04,27,13,46,15.20
2023,04,27,13,47,15.20
2023,04,27,13,48,15.30
2023,04,27,13,49,15.40
2023,04,27,13,50,15.40
2023,04,27,13,51,15.40
2023,04,27,13,52,15.40
2023,04,27,13,53,15.40
2023,04,27,13,54,15.40
2023,04,27,13,55,15.30
2023,04,27,13,56,15.30
2023,04,27,13,57,15.30
2023,04,27,13,58,15.30
2023,04,27,13,59,15.20
2023,04,27,14,00,15.20
2023,04,27,14,01,15.20
2023,04,27,14,02,15.20
2023,04,27,14,03,15.20
2023,04,27,14,04,15.20
2023,04,27,14,05,15.20
2023,04,27,14,06,15.30
2023,04,27,14,07,15.40
2023,04,27,14,08,15.40
2023,04,27,14,09,15.50
2023,04,27,14,10,15.40
2023,04,27,14,11,15.40
2023,04,27,14,12,15.30
2023,04,27,14,13,15.30
2023,04,27,14,14,15.30
2023,04,27,14,15,15.40
2023,04,27,14,16,15.40
2023,04,27,14,17,15.50
2023,04,27,14,18,15.50
2023,04,27,14,19,15.60
2023,04,27,14,20,15.60
2023,04,27,14,21,15.60
2023,04,27,14,22,15.60
2023,04,27,14,23,15.60
2023,04,27,14,24,15.70
2023,04,27,14,25,15.70
2023,04,27,14,26,15.70
2023,04,27,14,27,15.70
2023,04,27,14,28,15.70
2023,04,27,14,29,15.70
2023,04,27,14,30,15.60
2023,04,27,14,31,15.60
2023,04,27,14,32,15.60
2023,04,27,14,33,15.50
2023,04,27,14,34,15.60
2023,04,27,14,35,15.60
2023,04,27,14,36,15.60
2023,04,27,14,37,15.70
2023,04,27,14,38,15.70
2023,04,27,14,39,15.80
2023,04,27,14,40,15.90
2023,04,27,14,41,15.90
2023,04,27,14,42,16.00
2023,04,27,14,43,16.00
2023,04,27,14,44,15.90
2023,04,27,14,45,15.90
2023,04,27,14,46,15.90
2023,04,27,14,47,15.90
2023,04,27,14,48,15.80
2023,04,27,14,49,15.80
2023,04,27,14,50,15.80
2023,04,27,14,51,15.90
2023,04,27,14,52,15.90
2023,04,27,14,53,15.90
2023,04,27,14,54,15.90
2023,04,27,14,55,16.00
2023,04,27,14,56,16.00
2023,04,27,14,57,16.00
2023,04,27,14,58,16.10
2023,04,27,14,59,16.00
2023,04,27,15,00,16.00
2023,04,27,15,01,16.00
2023,04,27,15,02,16.00
2023,04,27,15,03,16.00
2023,04,27,15,04,16.00
2023,04,27,15,05,15.90
2023,04,27,15,06,15.90
2023,04,27,15,07,15.90
2023,04,27,15,08,15.80
2023,04,27,15,09,15.90
2023,04,27,15,10,15.90
2023,04,27,15,11,16.00
2023,04,27,15,12,16.10
2023,04,27,15,13,16.10
2023,04,27,15,14,16.20
2023,04,27,15,15,16.20
2023,04,27,15,16,16.20
2023,04,27,15,17,16.30
2023,04,27,15,18,16.30
2023,04,27,15,19,16.30
2023,04,27,15,20,16.30
2023,04,27,15,21,16.30
2023,04,27,15,22,16.30
2023,04,27,15,23,16.30
2023,04,27,15,24,16.30
2023,04,27,15,25,16.30
2023,04,27,15,26,16.30
2023,04,27,15,27,16.30
2023,04,27,15,28,16.30
2023,04,27,15,29,16.30
2023,04,27,15,30,16.40
2023,04,27,15,31,16.40
2023,04,27,15,32,16.40
2023,04,27,15,33,16.40
2023,04,27,15,34,16.40
2023,04,27,15,35,16.50
2023,04,27,15,36,16.60
2023,04,27,15,37,16.60
2023,04,27,15,38,16.60
2023,04,27,15,39,16.60
2023,04,27,15,40,16.70
2023,04,27,15,41,16.70
2023,04,27,15,42,16.70
2023,04,27,15,43,16.70
2023,04,27,15,44,16.70
2023,04,27,15,45,16.80
2023,04,27,15,46,16.80
2023,04,27,15,47,16.80
2023,04,27,15,48,16.90
2023,04,27,15,49,16.90
2023,04,27,15,50,16.80
2023,04,27,15,51,16.90
2023,04,27,15,52,16.90
2023,04,27,15,53,16.90
2023,04,27,15,54,17.00
2023,04,27,15,55,17.00
2023,04,27,15,56,17.00
2023,04,27,15,57,16.90
2023,04,27,15,58,16.90
2023,04,27,15,59,16.90
2023,04,27,16,00,16.90
2023,04,27,16,01,17.00
2023,04,27,16,02,17.10
2023,04,27,16,03,17.10
2023,04,27,16,04,17.10
2023,04,27,16,05,17.10
2023,04,27,16,06,17.10
2023,04,27,16,07,17.20
2023,04,27,16,08,17.20
2023,04,27,16,09,17.10
2023,04,27,16,10,17.10
2023,04,27,16,11,17.00
2023,04,27,16,12,17.00
2023,04,27,16,13,17.10
2023,04,27,16,14,17.10
2023,04,27,16,15,17.10
2023,04,27,16,16,17.10
2023,04,27,16,17,17.10
2023,04,27,16,18,17.10
2023,04,27,16,19,17.10
2023,04,27,16,20,17.10
2023,04,27,16,21,17.10
2023,04,27,16,22,17.10
2023,04,27,16,23,17.10
2023,04,27,16,24,17.10
2023,04,27,16,25,17.10
2023,04,27,16,26,17.20
2023,04,27,16,27,17.20
2023,04,27,16,28,17.20
2023,04,27,16,29,17.10
2023,04,27,16,30,17.10
2023,04,27,16,31,17.10
2023,04,27,16,32,17.10
2023,04,27,16,33,17.10
2023,04,27,16,34,17.00
2023,04,27,16,35,17.00
2023,04,27,16,36,16.90
2023,04,27,16,37,17.00
2023,04,27,16,38,17.00
2023,04,27,16,39,17.10
2023,04,27,16,40,17.10
2023,04,27,16,41,17.10
2023,04,27,16,42,17.10
2023,04,27,16,43,17.20
2023,04,27,16,44,17.20
2023,04,27,16,45,17.20
2023,04,27,16,46,17.20
2023,04,27,16,47,17.20
2023,04,27,16,48,17.20
2023,04,27,16,49,17.20
2023,04,27,16,50,17.20
2023,04,27,16,51,17.20
2023,04,27,16,52,17.20
2023,04,27,16,53,17.30
2023,04,27,16,54,17.30
2023,04,27,16,55,17.30
2023,04,27,16,56,17.30
2023,04,27,16,57,17.30
2023,04,27,16,58,17.30
2023,04,27,16,59,17.30
2023,04,27,17,00,17.30
2023,04,27,17,01,17.30
2023,04,27,17,02,17.30
2023,04,27,17,03,17.30
2023,04,27,17,04,17.30
2023,04,27,17,05,17.30
2023,04,27,17,06,17.30
2023,04,27,17,07,17.30
2023,04,27,17,08,17.30
2023,04,27,17,09,17.30
2023,04,27,17,10,17.30
2023,04,27,17,11,17.40
2023,04,27,17,12,17.40
2023,04,27,17,13,17.40
2023,04,27,17,14,17.40
2023,04,27,17,15,17.40
2023,04,27,17,16,17.50
2023,04,27,17,17,17.50
2023,04,27,17,18,17.50
2023,04,27,17,19,17.50
2023,04,27,17,20,17.40
2023,04,27,17,21,17.40
2023,04,27,17,22,17.50
2023,04,27,17,23,17.50
2023,04,27,17,24,17.50
2023,04,27,17,25,17.50
2023,04,27,17,26,17.60
2023,04,27,17,27,17.70
2023,04,27,17,28,17.70
2023,04,27,17,29,17.80
2023,04,27,17,30,17.70
2023,04,27,17,31,17.70
2023,04,27,17,32,17.70
2023,04,27,17,33,17.70
2023,04,27,17,34,17.70
2023,04,27,17,35,17.70
2023,04,27,17,36,17.70
2023,04,27,17,37,17.70
2023,04,27,17,38,17.70